Datetime,EastMidlands,SouthWales,SouthWest,WestMidlands
2022-12-13 00:00:00,2771.6598,1091.34414,1435.08532,2670.60248
2022-12-13 00:05:00,2775.0680199999997,1090.0154499999999,1480.4815800000001,2671.266675
2022-12-13 00:10:00,2775.0551400000004,1109.8977000000002,1502.41334,2674.5186833333332
2022-12-13 00:15:00,2771.807575,1126.7085000000002,1504.0181200000002,2675.1657800000003
2022-12-13 00:20:00,2769.839066666667,1126.34342,1507.60302,2675.9733800000004
2022-12-13 00:25:00,2765.852475,1126.5099599999999,1508.47306,2676.6666750000004
2022-12-13 00:30:00,2823.3629333333333,1143.49514,1525.36944,2717.070833333333
2022-12-13 00:35:00,2872.44916,1152.2579600000001,1537.810375,2757.03912
2022-12-13 00:40:00,2880.4703200000004,1154.98308,1540.8183833333333,2770.49084
2022-12-13 00:45:00,2878.82028,1153.2223600000002,1544.96374,2769.6691600000004
2022-12-13 00:50:00,2872.0879999999997,1154.69948,1546.7822200000003,2771.63668
2022-12-13 00:55:00,2862.8542000000007,1153.42182,1543.60984,2772.56765
2022-12-13 01:00:00,2876.56966,1148.2668,1543.5620999999999,2772.6375000000003
2022-12-13 01:05:00,2881.59516,1145.50384,1537.79704,2765.12998
2022-12-13 01:10:00,2884.15112,1139.8189200000002,1528.91368,2758.9917
2022-12-13 01:15:00,2878.00092,1138.3532,1522.5421800000001,2750.41525
2022-12-13 01:20:00,2873.06164,1140.05226,1519.33514,2753.8242
2022-12-13 01:25:00,2861.27116,1134.52934,1510.5260999999998,2747.27416
2022-12-13 01:30:00,2855.7319799999996,1096.97284,1499.05446,2746.86754
2022-12-13 01:35:00,2848.51538,1094.22722,1487.9535399999997,2733.0624199999997
2022-12-13 01:40:00,2843.3102200000003,1116.53402,1486.53944,2738.194775
2022-12-13 01:45:00,2833.43436,1113.87546,1480.6803399999997,2730.2507499999997
2022-12-13 01:50:00,2825.60946,1110.66146,1476.45432,2723.05328
2022-12-13 01:55:00,2818.7328399999997,1109.37368,1475.83528,2717.6483
2022-12-13 02:00:00,2820.4849799999997,1106.63882,1488.29578,2709.66
2022-12-13 02:05:00,2811.89884,1107.46242,1490.1082199999998,2700.015625
2022-12-13 02:10:00,2805.62544,1103.8969,1488.57568,2700.2305499999998
2022-12-13 02:15:00,2803.00948,1100.3084,1487.2844499999999,2701.3322749999998
2022-12-13 02:20:00,2800.88318,1099.35544,1488.05945,2703.4896166666663
2022-12-13 02:25:00,2793.1349999999998,1096.80804,1483.91542,2698.44836
2022-12-13 02:30:00,2786.4552400000002,1093.12848,1483.1327,2725.62504
2022-12-13 02:35:00,2782.0126400000004,1090.2769,1480.61086,2725.2666200000003
2022-12-13 02:40:00,2775.3662799999997,1087.4071199999998,1478.19346,2719.1067
2022-12-13 02:45:00,2767.53014,1083.2118,1474.5698200000002,2716.1949799999998
2022-12-13 02:50:00,2764.77716,1086.58932,1473.6066799999999,2713.129175
2022-12-13 02:55:00,2759.9711599999996,1049.63968,1469.40304,2713.7277666666664
2022-12-13 03:00:00,2769.72334,1047.59666,1475.8881600000002,2725.8991800000003
2022-12-13 03:05:00,2767.6713,1047.52352,1473.1313200000002,2725.17248
2022-12-13 03:10:00,2761.76936,1043.59008,1470.40052,2717.73582
2022-12-13 03:15:00,2756.5368399999998,1044.5941400000002,1468.00556,2715.41586
2022-12-13 03:20:00,2752.5128600000003,1063.90842,1464.6314,2719.7457999999997
2022-12-13 03:25:00,2742.20498,1064.73578,1457.4963,2709.5366599999998
2022-12-13 03:30:00,2746.1365,1060.93278,1451.0484000000001,2660.87748
2022-12-13 03:35:00,2752.8872199999996,1056.74194,1442.6845,2658.07496
2022-12-13 03:40:00,2751.5521200000003,1054.7149800000002,1436.12306,2660.1524799999997
2022-12-13 03:45:00,2749.61312,1052.0927199999999,1435.84654,2659.6075
2022-12-13 03:50:00,2739.8309600000002,1039.2895999999998,1429.86956,2659.26254
2022-12-13 03:55:00,2737.0115399999995,1029.8278599999999,1430.2149400000003,2654.3533199999997
2022-12-13 04:00:00,2718.6420599999997,1027.41584,1420.9920749999999,2637.932225
2022-12-13 04:05:00,2718.04736,1026.19414,1421.0849666666666,2656.5590333333334
2022-12-13 04:10:00,2714.16132,1025.0247,1420.50916,2660.7091
2022-12-13 04:15:00,2716.55714,1026.1139583333334,1418.6904600000003,2653.575
2022-12-13 04:20:00,2717.68644,1028.16594,1417.01138,2647.47418
2022-12-13 04:25:00,2711.07848,1027.8704000000002,1404.18076,2631.7466799999997
2022-12-13 04:30:00,2725.1939749999997,1046.94264,1394.00576,2639.461375
2022-12-13 04:35:00,2729.2476666666666,1065.24174,1390.23694,2642.820866666667
2022-12-13 04:40:00,2727.69652,1045.4667399999998,1388.30318,2643.14338
2022-12-13 04:45:00,2729.47752,1070.74332,1386.8075199999998,2641.2531
2022-12-13 04:50:00,2733.1465,1069.31448,1388.0988999999997,2647.710433333333
2022-12-13 04:55:00,2743.94206,1073.6373800000001,1389.16702,2651.05134
2022-12-13 05:00:00,2743.42094,1080.09186,1386.7345,2659.40484
2022-12-13 05:05:00,2749.87864,1084.71888,1392.2802,2678.2459
2022-12-13 05:10:00,2747.5584799999997,1086.3786599999999,1393.7165799999998,2685.701
2022-12-13 05:15:00,2756.9455199999998,1089.6170399999999,1391.9632800000002,2690.5215166666662
2022-12-13 05:20:00,2782.73314,1089.4274599999999,1397.68412,2697.09
2022-12-13 05:25:00,2793.87298,1094.0872,1400.84604,2699.56256
2022-12-13 05:30:00,2815.2727,1097.08835,1403.82676,2696.30748
2022-12-13 05:35:00,2847.5017,1103.1118,1409.4846400000001,2704.82424
2022-12-13 05:40:00,2879.1373200000003,1114.0482200000001,1418.6398000000002,2728.95754
2022-12-13 05:45:00,2919.8536400000003,1120.09155,1426.97732,2747.71332
2022-12-13 05:50:00,2936.2933000000003,1128.77544,1436.02425,2764.927025
2022-12-13 05:55:00,2959.285,1140.5473666666667,1444.3819833333334,2779.99445
2022-12-13 06:00:00,3018.9430199999997,1165.1607399999998,1474.6697799999997,2843.62252
2022-12-13 06:05:00,3089.50386,1189.6651200000001,1503.84636,2870.177075
2022-12-13 06:10:00,3137.3496999999998,1196.49476,1515.69024,2885.012533333333
2022-12-13 06:15:00,3191.2975199999996,1210.6577000000002,1533.81154,2928.1090799999993
2022-12-13 06:20:00,3224.26248,1230.97226,1553.8703799999998,2981.90496
2022-12-13 06:25:00,3241.36404,1251.9319,1575.5001,3015.00168
2022-12-13 06:30:00,3281.8949999999995,1271.70734,1595.865675,3044.9697749999996
2022-12-13 06:35:00,3332.45582,1281.588075,1617.4426799999997,3090.7062666666666
2022-12-13 06:40:00,3373.94706,1297.7258,1636.5902666666668,3129.00004
2022-12-13 06:45:00,3406.43314,1318.5724599999999,1651.43582,3144.89002
2022-12-13 06:50:00,3423.73556,1336.46328,1665.985425,3163.8541999999998
2022-12-13 06:55:00,3423.30282,1356.0081000000002,1684.4478333333334,3201.311766666667
2022-12-13 07:00:00,3467.2957,1374.0302,1692.82496,3254.49088
2022-12-13 07:05:00,3522.8017200000004,1392.5213800000001,1712.7771,3302.2475
2022-12-13 07:10:00,3564.428825,1418.05182,1725.4626666666666,3342.2366799999995
2022-12-13 07:15:00,3614.4547500000003,1428.6998,1740.2674200000001,3376.23166
2022-12-13 07:20:00,3655.76375,1445.01075,1755.83508,3408.8475399999998
2022-12-13 07:25:00,3692.3491500000005,1456.9706333333334,1766.8341,3442.6271
2022-12-13 07:30:00,3710.7497499999995,1466.0422,1774.4978999999998,3462.3604166666664
2022-12-13 07:35:00,3716.2932,1479.5775,1786.10364,3490.10746
2022-12-13 07:40:00,3738.43318,1499.7448,1797.7822199999998,3509.11754
2022-12-13 07:45:00,3753.95916,1497.74164,1810.65188,3528.9677
2022-12-13 07:50:00,3769.93148,1508.2046799999998,1834.43988,3549.091666666667
2022-12-13 07:55:00,3789.1704800000007,1519.43556,1850.1503799999998,3567.9566400000003
2022-12-13 08:00:00,3796.91728,1509.7082999999998,1852.12032,3585.9875
2022-12-13 08:05:00,3838.7801999999997,1522.6859333333334,1868.99724,3609.45582
2022-12-13 08:10:00,3859.58514,1533.45786,1876.26836,3622.20914
2022-12-13 08:15:00,3874.4555800000003,1531.7032,1891.01404,3637.9991600000003
2022-12-13 08:20:00,3888.41104,1536.43056,1895.4888600000002,3645.3854
2022-12-13 08:25:00,3893.0277199999996,1542.58902,1898.82738,3653.29445
2022-12-13 08:30:00,3907.8576999999996,1546.2976800000001,1894.9129399999997,3658.4708
2022-12-13 08:35:00,3923.5791,1552.5335799999998,1910.3054600000003,3687.29166
2022-12-13 08:40:00,3941.92886,1557.81378,1919.02772,3694.5207599999994
2022-12-13 08:45:00,3961.8983200000002,1563.2205999999999,1925.65222,3701.0108200000004
2022-12-13 08:50:00,3985.96466,1560.93856,1926.121425,3712.6844
2022-12-13 08:55:00,4014.9515199999996,1568.94186,1934.0201333333334,3733.059016666666
2022-12-13 09:00:00,4037.302025,1577.1664,1945.05708,3774.45582
2022-12-13 09:05:00,4042.58486,1585.10188,1953.96368,3788.98998
2022-12-13 09:10:00,4060.5908166666663,1590.0872400000003,1958.9018199999998,3793.92584
2022-12-13 09:15:00,4062.1119249999997,1602.7170600000002,1965.12934,3802.5391600000003
2022-12-13 09:20:00,4058.7123399999996,1618.74978,1963.8811199999996,3804.7300000000005
2022-12-13 09:25:00,4076.3987999999995,1617.14944,1961.8703799999998,3803.1399999999994
2022-12-13 09:30:00,4060.52048,1618.9916200000002,1957.93554,3810.62168
2022-12-13 09:35:00,4057.1038,1607.35422,1960.00916,3813.40425
2022-12-13 09:40:00,4044.76344,1595.31508,1962.20032,3831.7875
2022-12-13 09:45:00,4037.86088,1590.70108,1955.68546,3833.7899600000005
2022-12-13 09:50:00,4044.7731599999997,1594.1018,1955.95566,3851.0437500000003
2022-12-13 09:55:00,4045.18516,1593.5902800000001,1955.30004,3850.9382
2022-12-13 10:00:00,4025.0391600000003,1612.809925,1956.8889599999998,3846.3733
2022-12-13 10:05:00,4024.6248399999995,1625.5878,1953.1013599999999,3844.3871599999998
2022-12-13 10:10:00,4027.7422999999994,1627.4369000000002,1947.26908,3843.6683600000006
2022-12-13 10:15:00,4029.8161800000003,1628.3600600000002,1947.7985400000002,3856.65996
2022-12-13 10:20:00,4034.460375,1649.6895399999999,1951.97604,3852.2391599999996
2022-12-13 10:25:00,4023.2294166666666,1660.5267199999998,1952.57232,3856.3375399999995
2022-12-13 10:30:00,4050.8861600000005,1658.74314,1949.9314599999998,3853.1591400000007
2022-12-13 10:35:00,4033.2127800000003,1646.3792800000003,1944.6381000000001,3855.17334
2022-12-13 10:40:00,4010.1387999999997,1631.3659599999999,1945.31194,3860.1167
2022-12-13 10:45:00,4005.5492,1626.07226,1948.8059399999997,3869.87915
2022-12-13 10:50:00,4008.1112000000003,1620.0716800000002,1945.1016799999998,3878.89515
2022-12-13 10:55:00,4010.1220799999996,1599.9873,1946.45,3895.7183400000004
2022-12-13 11:00:00,4014.9989200000005,1604.55374,1943.4753799999999,3897.7641200000007
2022-12-13 11:05:00,4026.0441600000004,1617.9459,1941.46266,3899.58082
2022-12-13 11:10:00,4032.93214,1623.6051400000001,1939.8876599999999,3904.740675
2022-12-13 11:15:00,4036.7764799999995,1628.9986000000001,1951.0059999999999,3909.5639499999997
2022-12-13 11:20:00,4040.62232,1625.9509,1943.2777,3898.1200400000002
2022-12-13 11:25:00,4031.21336,1626.49892,1938.35078,3900.20746
2022-12-13 11:30:00,3975.9796800000004,1625.73966,1940.1699800000001,3903.637475
2022-12-13 11:35:00,3934.1636999999996,1624.47712,1934.59696,3898.7201666666665
2022-12-13 11:40:00,3938.1438800000005,1625.17334,1934.58434,3895.5749800000003
2022-12-13 11:45:00,3930.464,1627.27434,1934.9809,3900.4957999999997
2022-12-13 11:50:00,3944.3140200000003,1626.02136,1932.1364666666668,3912.4883200000004
2022-12-13 11:55:00,3943.2194250000002,1627.3383399999998,1934.14536,3911.81422
2022-12-13 12:00:00,3920.56775,1645.89542,1944.25144,3910.4258199999995
2022-12-13 12:05:00,3917.08536,1652.3583800000001,1943.9194400000001,3915.715
2022-12-13 12:10:00,3893.9989200000005,1652.16898,1941.5955999999999,3915.90254
2022-12-13 12:15:00,3879.97918,1656.6526000000001,1943.2361400000002,3914.1825
2022-12-13 12:20:00,3880.3409,1664.2477800000001,1944.0759400000002,3920.0483
2022-12-13 12:25:00,3887.85254,1691.48168,1946.36358,3912.8483399999996
2022-12-13 12:30:00,3908.9826000000003,1688.5103,1945.5798600000003,3910.9525000000003
2022-12-13 12:35:00,3897.7106000000003,1681.7756666666667,1942.4814,3901.1542
2022-12-13 12:40:00,3907.7258333333334,1677.5050199999998,1940.2592,3908.33334
2022-12-13 12:45:00,3900.14462,1665.4598400000002,1942.74914,3908.3382599999995
2022-12-13 12:50:00,3912.3781249999997,1640.8005600000001,1942.8215599999999,3896.8683599999995
2022-12-13 12:55:00,3992.9574166666666,1654.2634999999998,1937.03364,3891.0483
2022-12-13 13:00:00,4029.66734,1656.6578999999997,1949.09512,3896.0383200000006
2022-12-13 13:05:00,4006.6488400000003,1694.4538400000001,1938.18318,3897.64498
2022-12-13 13:10:00,4008.4267,1697.8979399999996,1934.44352,3880.21418
2022-12-13 13:15:00,4015.72586,1693.3185999999998,1927.6271399999998,3871.53582
2022-12-13 13:20:00,4006.3764800000004,1690.1629400000002,1922.8143599999999,3856.3687999999997
2022-12-13 13:25:00,3996.66498,1690.5894399999997,1913.9888999999998,3853.5062333333335
2022-12-13 13:30:00,4032.50316,1679.97778,1921.55412,3846.52002
2022-12-13 13:35:00,4026.80786,1664.85078,1908.1620199999998,3848.8741800000003
2022-12-13 13:40:00,4016.2572,1662.0341400000002,1907.10726,3850.11002
2022-12-13 13:45:00,4000.5518199999997,1663.5773000000002,1907.6889999999999,3844.86334
2022-12-13 13:50:00,3972.0338,1658.8345399999998,1910.2601399999999,3848.55105
2022-12-13 13:55:00,3938.04504,1651.304975,1907.8907,3851.26916
2022-12-13 14:00:00,3980.88606,1652.8793166666667,1900.2281200000002,3839.3320000000003
2022-12-13 14:05:00,3977.32298,1640.0228599999998,1900.0624400000002,3843.8366799999994
2022-12-13 14:10:00,3982.44752,1635.45896,1900.6641000000004,3841.44668
2022-12-13 14:15:00,3975.60432,1618.2859,1903.891,3853.91752
2022-12-13 14:20:00,3980.58568,1613.63602,1908.3971833333335,3849.5241199999996
2022-12-13 14:25:00,3972.94384,1608.47792,1905.35042,3850.78078
2022-12-13 14:30:00,3992.95546,1614.9766800000002,1900.12918,3881.08834
2022-12-13 14:35:00,3987.2805400000007,1612.29114,1896.0704799999999,3874.1117
2022-12-13 14:40:00,3982.54168,1615.20642,1897.03652,3881.5625
2022-12-13 14:45:00,3977.55308,1614.7675800000002,1900.38338,3881.5224799999996
2022-12-13 14:50:00,3965.4828,1621.27338,1903.2005800000002,3874.61166
2022-12-13 14:55:00,3943.7862799999994,1623.9541199999999,1903.91662,3851.415
2022-12-13 15:00:00,3988.5510200000003,1623.48016,1900.9025000000001,3819.1091800000004
2022-12-13 15:05:00,4006.79456,1628.7567600000002,1907.8896,3826.9833200000003
2022-12-13 15:10:00,4002.764,1637.01766,1908.6376400000001,3815.35752
2022-12-13 15:15:00,4001.66988,1642.9892399999997,1909.0324399999997,3819.9816600000004
2022-12-13 15:20:00,4025.31812,1641.3415,1912.9701,3811.7483199999997
2022-12-13 15:25:00,4028.53986,1640.64842,1921.40644,3812.62246
2022-12-13 15:30:00,4020.17684,1639.6000200000003,1927.2382400000001,3821.8718750000003
2022-12-13 15:35:00,4039.9906600000004,1643.0904249999999,1930.60504,3824.159033333334
2022-12-13 15:40:00,4071.0935400000003,1649.6723666666667,1940.9410200000002,3836.6224799999995
2022-12-13 15:45:00,4102.42866,1658.6071200000001,1951.58242,3853.9299999999994
2022-12-13 15:50:00,4127.8719200000005,1648.2899599999996,1961.0229599999998,3864.397875
2022-12-13 15:55:00,4145.3013200000005,1645.0980599999998,1975.9680199999998,3872.2284500000005
2022-12-13 16:00:00,4156.285180000001,1649.4319,2009.3731,3886.7899599999996
2022-12-13 16:05:00,4173.906440000001,1652.6347600000001,2020.83472,3903.87715
2022-12-13 16:10:00,4205.2871,1651.52726,2035.45408,3922.035
2022-12-13 16:15:00,4220.20384,1661.4019999999996,2042.644825,3953.8691400000002
2022-12-13 16:20:00,4240.07684,1646.3538800000001,2059.9548,3953.93265
2022-12-13 16:25:00,4231.34692,1623.45376,2059.6061,3958.69922
2022-12-13 16:30:00,4241.99926,1657.3113399999997,2080.26636,4006.43084
2022-12-13 16:35:00,4235.70142,1694.2902,2095.36204,4011.44836
2022-12-13 16:40:00,4242.3403,1707.0790000000002,2110.1938800000003,4028.581225
2022-12-13 16:45:00,4261.66668,1719.45886,2123.83506,4039.9568999999997
2022-12-13 16:50:00,4271.903625,1721.24615,2132.5159599999997,4040.6708249999997
2022-12-13 16:55:00,4259.670083333334,1719.2487399999998,2136.23178,4037.7461666666663
2022-12-13 17:00:00,4228.76924,1724.9245833333334,2128.2156,4044.034
2022-12-13 17:05:00,4231.0886,1730.4305200000003,2136.2062833333334,4051.6222000000002
2022-12-13 17:10:00,4224.27468,1728.37628,2143.0704,4061.39908
2022-12-13 17:15:00,4221.45754,1725.3554199999999,2143.6284399999995,4044.38174
2022-12-13 17:20:00,4218.22668,1720.64644,2145.6416400000003,4038.2233399999996
2022-12-13 17:25:00,4201.553819999999,1717.42096,2142.20484,4040.9883200000004
2022-12-13 17:30:00,4212.261600000001,1721.01898,2145.5721399999998,4029.19
2022-12-13 17:35:00,4197.504559999999,1727.1214599999998,2141.1290599999998,4019.0942600000003
2022-12-13 17:40:00,4187.42714,1720.77038,2137.3444250000002,4008.308275
2022-12-13 17:45:00,4187.45668,1716.2414,2135.9416166666665,4010.771566666667
2022-12-13 17:50:00,4174.374600000001,1694.01682,2126.53662,4003.025
2022-12-13 17:55:00,4157.45298,1668.01426,2125.536,4001.2200199999997
2022-12-13 18:00:00,4151.59968,1657.4071799999997,2130.10646,3986.6573
2022-12-13 18:05:00,4136.85278,1654.51852,2112.5326999999997,3970.0632000000005
2022-12-13 18:10:00,4120.996359999999,1653.2870200000002,2115.85494,3969.19164
2022-12-13 18:15:00,4113.17576,1654.77948,2113.2221600000003,3971.07166
2022-12-13 18:20:00,4101.48336,1676.1989999999998,2106.72698,3981.5575599999997
2022-12-13 18:25:00,4083.5845999999997,1682.80206,2103.03744,3966.1758800000002
2022-12-13 18:30:00,4108.777933333334,1682.3048199999998,2097.7357199999997,3973.71832
2022-12-13 18:35:00,4104.455360000001,1680.55782,2096.56832,3970.5842
2022-12-13 18:40:00,4091.31106,1685.4958599999998,2088.78006,3957.565
2022-12-13 18:45:00,4088.6806600000004,1704.20994,2080.8313000000003,3949.55582
2022-12-13 18:50:00,4071.02802,1688.48982,2071.4708400000004,3928.4266800000005
2022-12-13 18:55:00,4041.1216400000003,1661.2746199999997,2065.06894,3887.3175
2022-12-13 19:00:00,3993.40528,1663.17874,2047.6583,3860.5383799999995
2022-12-13 19:05:00,3991.74102,1663.99234,2058.364516666667,3839.26752
2022-12-13 19:10:00,3987.99012,1660.5529999999999,2049.6059999999998,3808.8858200000004
2022-12-13 19:15:00,3973.5163000000002,1644.1141600000003,2036.24366,3797.8183
2022-12-13 19:20:00,3959.0116399999997,1633.1600999999998,2024.02798,3788.14664
2022-12-13 19:25:00,3943.9714999999997,1630.22852,2012.06646,3776.88332
2022-12-13 19:30:00,3943.89434,1622.82514,1989.2389600000001,3737.9075000000003
2022-12-13 19:35:00,3981.4389599999995,1620.03484,1981.09824,3723.30006
2022-12-13 19:40:00,3971.1773399999997,1608.59954,1965.8990600000002,3705.6866600000003
2022-12-13 19:45:00,3960.94456,1600.95122,1950.78354,3683.1766199999997
2022-12-13 19:50:00,3959.12532,1543.49698,1948.93006,3680.40746
2022-12-13 19:55:00,3943.3028600000007,1533.71444,1934.2234199999998,3661.84336
2022-12-13 20:00:00,3945.63004,1551.37954,1931.5379999999998,3642.44912
2022-12-13 20:05:00,3932.69282,1545.0607999999997,1917.19784,3636.93668
2022-12-13 20:10:00,3903.4815399999998,1533.90998,1902.4219400000002,3630.5949800000003
2022-12-13 20:15:00,3881.0296399999997,1523.8404600000001,1897.7700799999998,3608.1858
2022-12-13 20:20:00,3857.76048,1516.1630400000001,1895.7471799999998,3595.7709200000004
2022-12-13 20:25:00,3834.4581600000006,1508.4961,1881.01584,3581.126025
2022-12-13 20:30:00,3806.6830800000002,1496.15828,1863.45638,3563.237483333333
2022-12-13 20:35:00,3800.49064,1482.6473,1845.5866600000002,3533.49256
2022-12-13 20:40:00,3786.16364,1478.86172,1836.1642800000002,3528.5767
2022-12-13 20:45:00,3775.6318399999996,1473.04992,1817.83736,3517.94586
2022-12-13 20:50:00,3764.8538199999994,1466.6237,1820.55424,3505.94582
2022-12-13 20:55:00,3722.5451000000003,1457.1250400000001,1799.6956000000002,3477.81586
2022-12-13 21:00:00,3676.8985199999997,1438.0659,1802.5713199999998,3450.2266599999994
2022-12-13 21:05:00,3603.13268,1422.4999600000003,1789.1363399999998,3403.23584
2022-12-13 21:10:00,3558.7470200000002,1415.36042,1775.9006199999997,3392.9866799999995
2022-12-13 21:15:00,3534.47134,1405.38672,1763.4981,3373.48246
2022-12-13 21:20:00,3504.8570200000004,1392.8919,1752.6590800000001,3349.53332
2022-12-13 21:25:00,3475.7823000000003,1382.2351999999998,1736.2868999999998,3331.8532799999994
2022-12-13 21:30:00,3440.51014,1369.44758,1692.8763999999999,3298.7349200000003
2022-12-13 21:35:00,3399.3676,1357.66122,1662.76474,3290.08332
2022-12-13 21:40:00,3407.01848,1346.1707000000001,1648.2202000000002,3269.43918
2022-12-13 21:45:00,3423.603,1337.59888,1636.57502,3250.8983
2022-12-13 21:50:00,3389.7799800000003,1323.53768,1611.1186,3230.09664
2022-12-13 21:55:00,3345.4195400000003,1311.6269800000002,1589.8959399999999,3198.52252
2022-12-13 22:00:00,3311.11352,1301.161925,1555.6940200000001,3168.32168
2022-12-13 22:05:00,3285.9588799999997,1304.3586666666667,1544.02792,3148.2308000000003
2022-12-13 22:10:00,3247.4897,1332.9762,1526.53014,3120.44416
2022-12-13 22:15:00,3237.96054,1320.40782,1513.2716,3089.57586
2022-12-13 22:20:00,3180.85152,1307.17156,1490.96066,3067.70666
2022-12-13 22:25:00,3148.83436,1297.0946800000002,1476.07262,3052.19166
2022-12-13 22:30:00,3114.729,1270.1155600000002,1468.8358999999998,3003.5975000000003
2022-12-13 22:35:00,3094.2378400000002,1257.77162,1466.8650599999999,2977.79162
2022-12-13 22:40:00,3081.2852,1272.4869199999998,1460.07876,2958.9067
2022-12-13 22:45:00,3059.99236,1289.80618,1447.70406,2940.1716800000004
2022-12-13 22:50:00,3035.6898,1270.37012,1436.48994,2919.03284
2022-12-13 22:55:00,3004.1449,1227.95552,1434.94454,2893.82584
2022-12-13 23:00:00,2954.91238,1230.3658,1408.5227799999998,2869.6825
2022-12-13 23:05:00,2917.4923599999997,1222.7409400000001,1396.3276599999997,2849.0366000000004
2022-12-13 23:10:00,2891.40472,1208.2495599999997,1382.66398,2827.58666
2022-12-13 23:15:00,2871.74464,1192.8006799999998,1369.865,2805.5968
2022-12-13 23:20:00,2861.9851000000003,1187.18596,1363.80182,2792.615933333333
2022-12-13 23:25:00,2849.806375,1176.44698,1357.2514999999999,2756.71912
2022-12-13 23:30:00,2848.010166666667,1171.26862,1349.96254,2726.03416
2022-12-13 23:35:00,2834.09846,1169.4234000000001,1344.6922200000001,2709.2158200000003
2022-12-13 23:40:00,2824.7056000000002,1161.9565,1335.141,2696.49168
2022-12-13 23:45:00,2824.93782,1152.23666,1339.85566,2692.635
2022-12-13 23:50:00,2822.8412199999993,1154.2467000000001,1348.06144,2685.98664
2022-12-13 23:55:00,2813.32166,1153.20498,1355.20224,2686.92834
